Tracking 19832 objects as of 25-Aug-2019
HD Live streaming from Space Station
objects crossing your sky now

SL-12 R/B(2)

Track SL-12 R/B(2) now!


NORAD ID: 28119
Int'l Code: 2003-053E
Perigee: 34,900.6 km
Apogee: 36,812.6 km
Inclination: 11.6 °
Period: 1,439.3 minutes
Semi major axis: 42227 km
RCS: 1.9952 m2 (large)
Launch date: November 24, 2003
Source: Commonwealth of Independent States (former USSR) (CIS)
Launch site: TYURATAM MISSILE AND SPACE COMPLEX (TTMTR)

Note: This is a ROCKET BODY
aabbcc
Your satellite tracking list
Your tracking list is empty




NASA's NSSDC Master Catalog

Two Line Element Set (TLE):
1 28119U 03053E   19235.78955747  .00000049  00000-0  00000+0 0  9996
2 28119  11.6031  31.0596 0226389 242.0374   5.2272  1.00048112 59796
Source of the keplerian elements: AFSPC